Regional Weather Roundup
Issued by NWS Cleveland, OH

Home | Current Version | Previous Version | Graphics & Text | Print | Product List | Glossary On
Versions: 1 2 3 4 5 6 7 8 9 10 11 12 13 14 15 16 17 18 19 20 21 22 23 24 25 26 27 28 29 30 31 32 33 34 35 36 37 38 39 40 41 42 43 44 45 46 47 48 49 50
000
ASUS41 KCLE 181210
RWRCLE
OHIO REGIONAL WEATHER ROUNDUP
NATIONAL WEATHER SERVICE CLEVELAND, OH
700 AM EST THU DEC 18 2014

NOTE: "FAIR" INDICATES FEW OR NO CLOUDS BELOW 12,000 FEET WITH NO
SIGNIFICANT WEATHER AND/OR OBSTRUCTIONS TO VISIBILITY.

OHZ001>008-015>018-024>027-034-035-043-044-181300-
   NORTHWEST OHIO

CITY           SKY/WX    TMP DP  RH WIND       PRES   REMARKS
DEFIANCE       NOT AVBL
FINDLAY        CLOUDY    29  22  75 W9        30.23R WCI  20
TOLEDO EXPRESS CLOUDY    29  22  75 W7        30.22S WCI  22
TOLEDO EXEC    CLOUDY    30  21  69 W8        30.23S WCI  22
LIMA           CLOUDY    30  21  69 W6        30.24R WCI  24
$$

OHZ009>014-019>023-028>033-038-089-181300-
   NORTHEAST OHIO

CITY           SKY/WX    TMP DP  RH WIND       PRES   REMARKS
CLE-HOPKINS    FLURRIES  29  22  75 W10       30.22S WCI  20
CLE-LAKEFRONT  CLOUDY    32  23  69 W15       30.19S WCI  22
CUY CO. ARPT   MOCLDY    32  25  74 NW14      30.19  WCI  22
LORAIN-ELYRIA  CLOUDY    28  22  78 W8        30.20F WCI  20
ASHTABULA      CLOUDY    30  24  78 W8        30.16S WCI  22
AKRON-CANTON   CLOUDY    28  21  75 W7        30.18S WCI  21
WOOSTER        CLOUDY    27  21  78 W8        30.19F WCI  19
MANSFIELD      CLOUDY    26  21  81 W6        30.19S WCI  19
YOUNGSTOWN     CLOUDY    28  21  75 W10       30.15R WCI  19
$$

OHZ042-051>053-060>062-070>072-077>081-181300-
  SOUTHWEST OHIO

CITY           SKY/WX    TMP DP  RH WIND       PRES   REMARKS
CINC-COVINGTON CLOUDY    26  17  68 CALM      30.26R
CINC-LUNKEN    CLOUDY    26  20  77 CALM      30.30S
HAMILTON       CLOUDY    26  18  71 NE3       30.28S
DAYTON         CLOUDY    27  19  72 NW6       30.26R WCI  20
WRIGHT-PAT AFB CLOUDY    27  19  71 NW6       30.26R WCI  20
DAYTON GENERAL CLOUDY    26  18  71 N5        30.24S WCI  20
WILMINGTON     CLOUDY    25  17  72 CALM      30.25R
$$

OHZ036-037-039>041-045>050-054>059-063>069-073>076-082>088-181300-
  CENTRAL AND SOUTHEAST OHIO

CITY           SKY/WX    TMP DP  RH WIND       PRES   REMARKS
COLUMBUS       CLOUDY    27  18  69 NW7       30.24S WCI  19
OSU AIRPORT    CLOUDY    27  19  72 W6        30.24R WCI  20
BOLTON FIELD   NOT AVBL
RICKENBACK AFB CLOUDY    27  19  70 W3        30.25R
NEWARK         CLOUDY    28  20  71 NW3       30.23F
MARION         CLOUDY    27  20  75 NW6       30.23R WCI  20
LANCASTER      CLOUDY    28  19  69 W6        30.25R WCI  22
ZANESVILLE     CLOUDY    27  18  69 NW5       30.23S WCI  22
NEW PHILLY     CLOUDY    29  21  72 CALM      30.22F
$$


USA.gov is the U.S. government's official web portal to all federal, state and local government web resources and services.